SCP
0 0 0 0 0 0 0 0 0 0 0 0 0 0 0 0 0 0 0 0 0 0
0 0 0 0 0 0 0 0 0 0 0 0 0 0 0 0 0 0 0 0 0 0
0 0 0 0 0 0 0 0 0 0 0 0 0 0 0 0 0 0 0 0 0 0
0 0 0 0 0 0 0 0 0 0 0 0 0 0 0 0 0 0 0 0 0 0
0 0 0 0 0 0 0 0 0 0 0 0 0 0 0 0 0 0 0 0 0 0
0 0 0 0 0 0 0 0 0 0 0 0 0 0 0 0 0 0 0 0 0 0
0 0 0 0 0 0 0 0 0 0 0 0 0 0 0 0 0 0 0 0 0 0
0 0 0 0 0 0 0 0 0 0 0 0 0 0 0 0 0 0 0 0 0 0
0 0 0 0 0 0 0 0 0 0 0 0 0 0 0 0 0 0 0 0 0 0
-0 0 0 0 0 0 0 0 0 0 0 0 0 0 0 0 0 0 0 0 0 0
-0 -0 -0 -0 0 0 0 0 0 0 0 0 0 0 0 0 0 0 0 0 0 0
-0 -0 -0 -0 -0 -0 -0 0 0 0 0 0 0 0 0 0 0 0 0 0 0 0
-0 -0 -0 -0 -0 -0 -0 -0 -0 0 0 0 0 0 0 0 0 0 0 0 0 0
-0 -0 -0 -0 -0 -0 -0 -0 -0 -0 0 0 0 0 0 0 0 0 0 0 0 0
Wind_Speed_500mb
74 86 96 97 94 99 98 97 91 91 86 84 84 89 93 97 96 96 98 100 103 103
60 69 79 88 91 93 96 97 95 93 92 87 85 83 86 92 96 98 98 100 101 105
36 53 63 67 78 84 88 89 91 93 92 91 87 85 86 90 90 95 97 97 98 100
27 31 44 59 66 72 76 80 87 91 92 93 91 92 94 94 92 95 97 96 98 97
33 29 30 37 49 62 70 73 78 83 85 89 93 94 95 97 97 97 100 98 98 96
44 45 45 44 42 43 51 63 72 77 83 87 90 93 95 99 98 100 97 96 99 98
54 54 52 53 53 54 51 54 59 68 76 80 85 92 94 96 100 101 103 99 98 99
62 61 59 58 58 59 60 61 62 65 70 75 78 85 91 95 99 102 101 101 101 98
66 67 69 66 62 62 63 64 65 66 69 74 76 77 78 82 90 95 97 98 97 96
75 71 71 74 76 73 69 68 68 70 69 73 75 77 80 81 85 91 94 94 96 98
87 87 83 80 77 80 80 79 78 76 75 78 77 75 74 79 88 91 95 96 96 93
98 99 97 94 91 86 85 84 84 83 82 79 82 76 72 71 80 86 92 91 90 90
108 103 106 105 101 95 92 93 91 90 89 86 82 78 78 67 75 84 89 90 89 88
110 111 108 103 101 104 103 99 97 97 94 93 90 80 77 75 74 80 86 90 91 90
Wind_Direction_500mb
266 265 266 268 269 271 272 275 278 277 275 271 268 266 262 261 262 261 259 257 257 257
262 262 264 269 271 272 274 275 276 276 277 276 274 270 267 263 263 262 262 262 261 259
289 269 266 266 269 271 274 276 277 278 278 277 276 274 270 267 264 261 261 262 262 262
326 309 283 270 268 270 273 274 275 277 278 277 274 271 267 267 266 264 264 264 261 258
323 319 309 294 280 273 273 273 273 274 275 276 276 275 273 270 268 267 265 266 265 264
330 320 315 308 299 288 281 274 271 269 270 272 272 272 270 271 270 267 267 267 265 264
337 331 327 317 306 299 292 287 279 272 270 269 270 270 269 269 268 269 266 263 265 263
333 331 327 324 320 307 298 294 289 278 272 271 269 267 268 269 268 267 267 266 263 263
329 325 322 322 318 319 313 301 294 290 282 276 269 267 266 268 272 270 267 267 266 265
325 324 321 318 316 316 314 313 306 297 291 284 277 270 264 266 266 266 268 268 266 266
323 321 318 317 316 311 310 309 308 308 301 293 287 279 269 263 264 264 265 265 266 266
318 316 316 314 313 313 309 304 303 302 301 300 292 286 277 263 261 262 263 263 263 263
314 313 312 311 310 308 308 306 301 298 298 298 298 291 283 269 261 261 260 260 259 259
310 311 311 309 307 307 304 302 301 297 295 294 295 296 289 280 264 259 262 261 259 258
Wind_Speed_850mb
74 86 96 97 94 99 98 97 91 91 86 84 84 89 93 97 96 96 98 100 103 103
60 69 79 88 91 93 96 97 95 93 92 87 85 83 86 92 96 98 98 100 101 105
36 53 63 67 78 84 88 89 91 93 92 91 87 85 86 90 90 95 97 97 98 100
27 31 44 59 66 72 76 80 87 91 92 93 91 92 94 94 92 95 97 96 98 97
33 29 30 37 49 62 70 73 78 83 85 89 93 94 95 97 97 97 100 98 98 96
44 45 45 44 42 43 51 63 72 77 83 87 90 93 95 99 98 100 97 96 99 98
54 54 52 53 53 54 51 54 59 68 76 80 85 92 94 96 100 101 103 99 98 99
62 61 59 58 58 59 60 61 62 65 70 75 78 85 91 95 99 102 101 101 101 98
66 67 69 66 62 62 63 64 65 66 69 74 76 77 78 82 90 95 97 98 97 96
75 71 71 74 76 73 69 68 68 70 69 73 75 77 80 81 85 91 94 94 96 98
87 87 83 80 77 80 80 79 78 76 75 78 77 75 74 79 88 91 95 96 96 93
98 99 97 94 91 86 85 84 84 83 82 79 82 76 72 71 80 86 92 91 90 90
108 103 106 105 101 95 92 93 91 90 89 86 82 78 78 67 75 84 89 90 89 88
110 111 108 103 101 104 103 99 97 97 94 93 90 80 77 75 74 80 86 90 91 90
Wind_Direction_850mb
266 265 266 268 269 271 272 275 278 277 275 271 268 266 262 261 262 261 259 257 257 257
262 262 264 269 271 272 274 275 276 276 277 276 274 270 267 263 263 262 262 262 261 259
289 269 266 266 269 271 274 276 277 278 278 277 276 274 270 267 264 261 261 262 262 262
326 309 283 270 268 270 273 274 275 277 278 277 274 271 267 267 266 264 264 264 261 258
323 319 309 294 280 273 273 273 273 274 275 276 276 275 273 270 268 267 265 266 265 264
330 320 315 308 299 288 281 274 271 269 270 272 272 272 270 271 270 267 267 267 265 264
337 331 327 317 306 299 292 287 279 272 270 269 270 270 269 269 268 269 266 263 265 263
333 331 327 324 320 307 298 294 289 278 272 271 269 267 268 269 268 267 267 266 263 263
329 325 322 322 318 319 313 301 294 290 282 276 269 267 266 268 272 270 267 267 266 265
325 324 321 318 316 316 314 313 306 297 291 284 277 270 264 266 266 266 268 268 266 266
323 321 318 317 316 311 310 309 308 308 301 293 287 279 269 263 264 264 265 265 266 266
318 316 316 314 313 313 309 304 303 302 301 300 292 286 277 263 261 262 263 263 263 263
314 313 312 311 310 308 308 306 301 298 298 298 298 291 283 269 261 261 260 260 259 259
310 311 311 309 307 307 304 302 301 297 295 294 295 296 289 280 264 259 262 261 259 258